Wind_Speed
14 12 10 7 6 6 6 7 7 7 7 7 6 6 6 6 8 6 10 4 7 10 12 11 9 8 7 5 4 3 7 7 5 7 4 5 5 6 3 1 2 3 2 4 14
17 14 12 9 6 5 6 6 7 7 7 7 6 6 5 5 7 13 8 10 9 14 14 16 11 12 8 6 4 7 8 1 3 3 3 3 4 5 3 3 6 6 3 5 13
20 15 13 12 8 5 5 5 6 7 7 7 7 6 5 3 6 4 5 11 16 16 12 10 10 12 9 7 6 4 7 5 5 1 4 5 4 1 4 5 8 6 5 6 11
21 17 12 11 9 6 4 3 5 6 7 8 8 6 3 3 1 5 10 17 15 9 12 12 12 11 9 9 6 8 3 4 3 2 4 4 3 4 3 9 7 6 5 6 10
22 20 14 10 9 6 4 2 3 5 7 8 8 5 2 7 2 1 14 20 12 10 12 12 13 9 10 7 7 8 6 4 5 3 3 2 3 2 3 10 8 5 1 4 7
23 22 15 9 7 5 4 3 2 3 6 8 7 6 4 6 3 5 18 18 11 12 11 11 7 5 6 6 9 4 5 5 5 3 4 6 3 4 9 9 4 3 5 6 7
24 23 17 10 5 3 2 3 2 0 4 7 7 3 6 4 4 12 17 13 11 9 11 6 5 8 8 8 3 4 9 8 8 7 5 4 10 5 7 5 5 5 6 7 8
25 24 19 10 5 3 2 1 1 2 4 5 6 3 4 3 5 15 12 9 9 7 6 7 2 3 6 4 6 8 7 10 9 9 5 7 12 6 6 6 8 9 9 7 5
27 26 20 10 4 3 3 2 1 3 5 7 2 5 3 5 9 15 14 10 11 7 5 5 5 3 6 11 9 8 6 7 10 6 0 8 9 6 4 5 7 10 12 12 8
30 27 18 9 4 3 5 5 5 5 4 2 5 5 6 6 10 15 13 10 10 12 9 9 7 9 9 9 9 8 8 7 8 9 9 8 5 5 4 4 6 8 10 12 11
34 26 16 7 3 6 10 4 5 6 8 7 2 4 5 7 12 14 15 14 11 14 12 14 10 12 13 5 2 4 6 8 6 4 6 11 6 5 5 2 4 7 9 11 11
32 22 14 4 4 9 5 3 6 5 8 11 12 11 8 3 8 12 17 12 14 15 15 8 14 9 4 7 8 9 10 10 5 5 6 8 10 8 5 4 5 5 7 9 9
30 17 12 2 9 7 1 5 7 3 6 3 5 9 10 14 9 17 20 15 14 16 15 15 1 4 13 11 11 12 11 7 9 7 9 9 13 14 9 7 7 7 6 7 7
24 14 9 9 4 3 3 8 8 5 5 7 6 4 8 8 9 11 23 13 8 14 14 11 10 10 13 13 13 13 12 10 8 9 10 7 11 14 15 12 7 6 5 6 6
17 12 7 3 3 1 7 11 2 4 4 4 5 4 5 14 8 12 21 12 14 10 8 7 11 16 16 16 13 12 6 11 10 11 12 14 8 11 11 12 12 8 7 6 5
10 16 6 4 3 6 11 6 4 5 4 4 4 5 8 14 5 9 12 11 9 11 13 15 3 8 9 8 12 5 9 9 11 13 15 17 16 11 14 13 12 10 9 8 7
9 8 13 7 6 14 8 4 5 5 2 3 1 1 6 10 15 9 17 18 13 13 15 18 18 15 10 12 12 11 12 9 11 9 13 0 7 13 8 6 10 12 11 10 9
8 1 7 11 11 9 5 5 6 3 3 5 4 10 8 8 14 17 11 17 22 17 12 13 15 21 14 21 15 20 16 12 10 10 8 8 7 5 6 9 8 11 11 10 10
8 2 4 18 12 6 6 6 4 4 5 8 11 9 10 8 6 9 19 18 17 19 17 9 16 5 6 14 18 12 11 11 15 13 11 14 9 9 10 10 11 12 13 13 12
7 2 11 23 9 6 5 3 2 4 8 5 6 3 6 4 7 8 15 7 19 12 18 18 19 9 9 7 7 11 7 8 10 14 17 11 13 10 14 17 15 15 15 14 15
6 3 14 23 3 4 4 4 3 3 8 4 7 9 11 10 9 11 7 2 5 7 9 13 12 16 8 14 20 10 14 13 11 13 14 15 11 9 12 14 16 16 15 15 16
8 1 19 20 3 2 2 5 4 6 4 4 7 10 13 13 13 16 14 11 6 7 8 9 7 14 20 9 6 12 16 20 12 18 11 13 14 4 4 4 9 13 15 16 15
6 4 12 14 2 4 4 5 3 6 5 5 5 3 6 8 8 14 14 2 7 5 4 6 9 12 18 12 6 13 17 16 18 16 21 15 12 3 4 7 9 13 15 15 15
4 3 3 6 6 6 7 3 4 5 3 6 8 8 9 12 13 9 11 1 9 4 6 4 14 17 18 20 10 14 17 14 17 15 19 22 22 12 9 10 12 13 15 15 16
5 4 4 5 6 9 6 5 9 6 6 6 5 6 8 7 13 17 12 11 11 2 6 4 17 19 22 23 22 16 18 16 20 22 22 21 22 16 8 11 12 14 14 14 17
5 5 4 3 6 9 3 6 10 10 8 8 8 13 14 13 15 19 10 11 10 7 10 4 14 16 23 19 18 21 24 24 25 23 23 23 24 14 12 10 12 11 13 16 18
7 3 4 4 8 7 6 10 14 12 8 7 15 17 17 15 14 15 17 17 18 18 12 9 10 16 25 19 20 24 25 28 28 27 25 25 22 16 17 13 12 12 14 16 16
Wind_Direction
13 10 359 336 307 285 273 260 248 242 237 239 242 251 262 268 273 263 249 231 190 178 158 165 183 191 206 200 226 255 247 229 142 202 91 41 2 62 55 194 207 156 20 65 141
12 8 4 353 329 298 279 265 250 243 239 235 234 244 263 271 263 257 247 210 202 178 176 179 180 185 195 204 198 244 251 131 48 60 330 332 335 355 248 140 152 175 118 136 160
12 5 2 360 344 315 289 268 248 239 237 228 223 231 253 271 258 116 221 172 152 154 187 193 176 194 202 207 181 177 268 132 150 354 318 312 253 329 275 208 46 10 59 175 185
10 5 358 360 358 342 318 277 246 236 229 221 216 221 225 240 258 115 156 155 152 171 169 173 183 194 200 198 181 212 167 194 125 149 293 288 319 218 260 25 351 321 332 186 199
9 3 357 353 1 3 3 332 263 242 222 213 208 201 188 220 119 154 170 168 165 171 178 182 186 190 190 168 180 230 176 191 211 235 272 290 225 345 50 352 325 323 291 245 226
7 3 354 344 351 358 6 353 314 255 216 201 192 180 247 232 84 136 158 166 180 186 178 186 188 223 155 169 230 151 218 231 228 228 167 255 156 224 32 342 345 318 278 240 252
4 360 353 339 321 329 343 5 355 175 185 185 179 176 252 9 129 153 160 178 184 189 178 174 147 212 164 165 155 187 241 200 211 189 161 258 179 74 2 352 8 356 334 288 250
360 356 350 333 300 290 263 342 10 148 165 170 164 226 276 152 157 164 168 158 175 174 209 167 199 162 234 103 186 225 237 205 146 190 152 218 158 85 21 10 25 16 12 356 294
357 351 346 328 289 255 221 200 141 145 151 148 186 244 177 144 180 181 179 173 168 172 160 177 224 212 180 206 194 198 193 224 164 185 170 226 141 99 39 37 40 30 30 32 38
355 348 343 323 268 228 177 146 127 121 148 215 252 242 195 189 157 171 182 173 165 165 162 197 206 205 216 215 228 176 195 199 212 179 223 221 202 126 78 59 52 41 38 48 52
353 347 343 318 223 181 145 142 205 184 209 256 78 304 139 119 146 177 170 173 173 186 194 200 216 213 206 224 298 225 233 229 202 177 244 236 242 156 135 109 76 53 39 42 45
354 350 346 328 182 161 150 275 40 345 288 243 249 249 242 210 174 175 180 189 184 198 207 185 227 224 179 194 207 216 222 218 216 184 244 208 233 173 152 115 79 56 55 49 43
356 359 359 67 143 146 170 61 329 264 265 215 221 232 209 205 217 179 190 207 205 214 203 232 103 246 198 197 210 217 230 216 253 173 232 257 243 194 167 146 118 85 75 64 50
1 10 27 113 132 166 147 337 323 214 271 147 186 170 188 195 219 190 200 196 210 224 216 242 198 183 194 210 215 233 211 233 228 239 253 192 271 177 173 169 161 126 107 92 92
11 21 56 43 22 262 330 325 305 232 265 123 127 126 182 193 113 185 195 206 224 201 199 212 204 210 226 226 208 244 172 226 232 249 263 240 243 262 171 193 173 153 136 124 113
27 42 58 31 50 357 326 301 224 234 218 137 123 180 172 209 204 140 180 225 250 234 223 251 172 207 213 188 198 167 197 227 243 251 243 242 248 252 190 215 158 157 149 145 144
354 35 45 35 339 325 325 216 242 249 83 90 66 317 244 209 218 196 191 202 208 210 224 219 223 221 233 200 193 208 224 234 217 212 247 314 243 242 101 135 169 165 157 159 161
356 37 23 25 333 322 280 235 251 45 351 4 310 297 244 204 220 217 219 217 219 232 272 224 222 212 200 226 213 206 224 249 262 257 244 142 234 225 140 146 152 154 158 161 174
7 334 38 345 339 318 276 248 333 8 348 329 306 259 237 219 252 219 228 233 225 215 232 234 247 140 231 214 226 210 226 262 276 263 266 269 242 167 167 177 174 172 174 179 182
355 287 27 342 327 276 260 299 315 10 335 294 284 278 272 240 245 215 237 232 240 251 225 246 256 214 172 207 213 255 246 214 224 257 257 256 252 276 181 197 190 190 190 186 186
346 244 2 349 302 247 290 36 319 16 355 301 294 282 272 278 271 270 278 200 246 203 234 239 232 238 194 218 235 195 231 234 278 269 272 268 261 183 200 197 198 203 193 188 190
328 296 354 348 261 7 25 344 334 320 343 298 289 280 272 284 275 261 259 256 5 289 227 214 248 238 223 229 301 283 257 229 229 245 238 271 274 115 158 202 210 196 192 192 195
348 332 1 349 44 16 350 300 292 333 346 322 289 346 324 279 276 251 265 49 356 275 310 206 232 245 242 213 222 248 238 247 255 255 259 259 245 120 148 185 191 188 184 193 195
322 334 39 60 51 343 353 339 320 345 291 325 308 286 307 264 254 267 261 123 326 348 323 287 248 251 250 258 262 226 222 232 234 238 248 244 259 189 175 192 185 194 199 198 196
2 54 11 344 7 345 338 329 316 325 331 334 202 30 336 279 272 262 265 301 256 48 299 289 248 247 254 264 271 268 255 219 231 244 249 258 261 272 221 218 215 214 214 202 203
18 351 344 21 334 329 39 38 322 351 319 310 304 335 314 286 288 297 302 293 282 331 304 247 260 254 258 256 258 255 253 257 258 254 249 260 256 262 271 229 255 227 216 212 214
24 24 293 80 347 334 23 341 321 325 293 343 330 307 294 297 317 303 291 283 277 283 288 286 269 244 255 255 259 255 250 249 253 249 251 251 258 254 253 229 241 249 243 221 224
Height
812 809 806 804 803 802 802 802 802 801 801 801 802 801 801 802 801 801 798 795 795 796 798 800 801 800 799 794 794 790 794 792 795 794 790 775 780 770 771 771 771 770 771 779 784
812 808 805 803 801 801 800 800 800 800 799 800 800 800 800 800 801 797 794 792 793 795 798 797 796 797 793 791 791 791 793 787 786 786 787 780 781 778 776 775 774 775 779 783 786
812 808 805 802 800 799 799 799 798 798 798 798 798 798 799 799 798 785 789 791 792 795 796 795 794 793 792 788 790 789 791 791 790 786 784 783 780 776 777 778 773 775 773 781 785
812 808 805 802 800 798 797 797 797 797 797 797 797 798 798 801 792 787 789 791 794 796 796 795 793 794 792 795 788 796 792 790 785 786 786 785 780 780 777 775 774 773 774 779 781
812 807 804 801 799 798 797 796 796 795 795 796 796 797 799 794 783 787 789 792 795 796 793 791 790 788 793 789 792 792 791 789 785 783 783 782 782 780 780 780 775 774 778 779 780
812 807 803 800 798 797 796 795 795 795 794 795 796 797 798 791 787 786 790 793 794 794 792 789 785 784 787 789 790 788 789 786 782 781 781 785 783 783 783 781 776 776 775 776 780
810 806 802 799 797 796 796 795 795 794 794 795 796 797 795 784 787 789 791 793 793 793 792 792 789 787 784 793 787 788 795 785 784 781 783 781 790 793 788 780 780 779 777 775 777
808 803 799 796 795 795 794 794 794 794 794 796 797 799 786 786 788 789 791 793 794 794 792 793 792 786 783 785 789 791 790 794 783 783 782 784 794 791 787 785 784 781 778 777 776
806 801 797 794 793 793 793 793 794 794 795 796 798 796 780 785 787 788 790 790 793 795 794 794 791 786 789 791 795 791 793 793 794 781 785 784 784 790 788 788 789 785 783 782 780
803 798 794 791 791 791 792 793 794 795 796 797 797 797 782 777 782 785 788 789 790 792 794 792 788 790 785 788 797 793 794 794 791 785 785 786 784 790 791 790 792 791 789 790 792
801 795 791 789 789 789 791 794 795 793 792 776 775 776 775 778 781 783 786 787 787 789 793 789 793 794 783 782 784 788 793 794 786 782 791 783 785 790 793 793 795 797 800 798 798
797 792 788 787 787 789 790 786 789 792 784 772 774 774 776 776 777 779 783 783 786 791 783 796 796 774 780 787 791 791 795 793 785 784 791 782 787 790 792 798 802 805 806 809 809
796 791 788 786 787 790 790 791 791 790 782 769 769 769 770 775 771 773 777 775 781 784 785 785 775 775 786 791 795 791 791 789 790 785 784 787 789 792 793 795 802 809 811 812 814
796 792 789 788 792 790 789 791 790 789 785 770 768 764 767 765 774 763 769 771 777 780 777 779 768 783 785 787 787 792 781 784 790 795 796 779 799 781 782 789 798 806 809 811 813
797 793 791 790 791 788 793 790 789 788 795 764 767 763 761 763 759 765 764 768 775 776 780 775 778 785 787 781 778 784 775 783 785 791 790 785 797 771 773 784 790 800 806 809 811
799 795 793 793 792 793 790 788 788 791 794 767 762 766 770 763 759 763 766 765 761 769 773 766 763 767 767 767 772 769 783 785 785 786 798 784 782 774 767 770 778 797 802 806 808
799 798 795 794 794 790 788 786 791 791 764 774 772 765 764 765 764 762 768 773 775 790 783 772 770 764 765 775 772 778 785 799 800 796 794 769 778 769 764 766 772 789 798 803 807
798 797 796 797 793 790 787 784 803 780 777 770 771 767 770 758 761 759 764 769 761 762 767 772 779 761 758 766 768 774 775 784 798 789 773 779 790 769 761 772 779 785 795 802 805
796 797 798 795 791 789 784 792 785 788 787 785 773 774 763 763 765 763 760 758 749 755 776 768 770 750 753 751 755 765 782 761 778 768 787 767 757 768 772 780 784 789 794 799 802
799 797 797 794 789 788 784 796 788 790 790 785 787 774 775 765 770 763 755 747 750 748 746 755 773 752 754 758 759 762 751 782 777 802 804 779 766 761 772 774 778 783 789 793 797
801 790 797 791 789 781 786 794 794 791 795 793 785 783 776 775 769 764 760 751 753 754 750 751 764 758 755 764 760 764 769 769 765 762 777 778 761 732 747 756 766 771 779 786 792
804 790 800 792 788 793 795 807 810 796 794 794 790 786 784 777 776 769 766 757 761 755 760 752 757 764 756 743 750 750 747 752 774 778 768 770 764 742 746 749 755 762 771 778 784
812 807 805 796 799 804 807 807 805 805 803 801 797 797 789 788 787 768 764 761 768 762 760 756 760 771 764 753 759 761 751 751 749 755 766 770 763 750 754 755 757 760 765 773 780
817 809 808 813 822 823 821 809 809 807 807 809 806 800 800 790 781 778 771 772 775 772 779 770 760 759 761 747 738 750 752 749 755 765 758 751 749 744 754 757 757 759 761 767 776
829 836 843 823 821 831 828 822 819 816 815 812 805 814 815 805 787 784 776 786 773 775 769 771 766 757 750 748 745 746 745 747 757 749 757 744 742 737 739 750 751 754 758 764 770
840 847 842 837 839 833 832 824 831 834 835 820 823 823 825 817 806 802 799 801 788 775 780 770 767 760 755 747 751 756 748 746 743 742 743 743 741 732 732 739 745 747 754 761 764
858 857 851 849 838 835 838 844 844 841 836 833 836 835 827 819 817 817 815 811 805 801 794 787 768 764 758 754 754 755 741 742 737 733 736 742 734 727 733 741 744 745 746 753 757